www.pogodaiklimat.ru
ПОГОДА в Юг Лейк Тахо
Время
и дата
11:53 19.07
12:53 19.07
13:53 19.07
14:53 19.07
15:53 19.07
16:53 19.07
17:53 19.07
18:53 19.07
19:53 19.07
20:53 19.07
21:53 19.07
22:53 19.07
23:53 19.07
00:53 20.07
01:53 20.07
02:53 20.07
03:53 20.07
04:53 20.07
05:53 20.07
06:53 20.07
07:53 20.07
08:53 20.07
09:53 20.07
10:53 20.07
11:53 20.07
12:53 20.07
13:31 20.07
13:53 20.07
14:40 20.07
14:53 20.07
15:24 20.07
15:37 20.07
15:53 20.07
16:53 20.07
17:53 20.07
18:53 20.07
19:53 20.07
20:53 20.07
21:53 20.07
22:53 20.07
23:53 20.07
00:53 21.07
01:53 21.07
02:53 21.07
03:53 21.07
04:53 21.07
05:53 21.07
06:53 21.07
Ветер
(напр.,м/с)
Видим. Явления Облачность Т
(С)
Тd
(С)
f
(%)
Тe
(С)
Тes
(С)
Комфортность P
(гПа)
Po
(гПа)
Тmin
(С)
Tmax
(С)
R
(мм)
R24
(мм)
S
(см)
С 4 16 км ясно +26.1 +8.9 34 +26 +39 жарко 1020.5 815.0
СВ 4 16 км 2/0 3000 m
[Ac]
+27.8 +8.3 29 +28 +39 жарко 1020.2 815.0
штиль 0 16 км 8/0 2850 m
[Ac]
+27.8 +7.8 28 +27 +39 жарко 1019.8 814.7
СВ 4 16 км 5/0 3000 m
[Ac]
+29.4 +7.8 26 +29 +36 жарко 1019.1 814.2
нст 2 16 км ясно +29.4 +3.9 20 +28 +40 жарко 1019.0 813.9 +25.0 +30.6
штиль 0 16 км ясно +29.4 +3.3 19 +27 +38 жарко 1018.9 813.9
С 3 16 км ясно +26.7 +5.0 25 +26 +29 жарко 1019.4 813.9
штиль 0 16 км ясно +22.8 +7.2 37 +24 +25 комфорт 1019.7 814.2
штиль 0 16 км 2/0 3300 m
[Ac]
+20.6 +6.7 40 +21 +21 комфорт 1020.0 814.7
Ю 2 16 км ясно +18.3 +9.4 56 +19 +19 1020.3 815.2
Ю 2 16 км ясно +16.7 +8.9 60 +17 +17 1020.3 815.2 +16.7 +30.6
Ю 2 16 км ясно +15.6 +8.9 64 +16 +16 1020.5 815.2
штиль 0 16 км ясно +13.9 +8.3 69 +14 +14 1020.3 815.0
Ю 2 16 км ясно +13.3 +8.3 72 +13 +13 1020.1 814.7
Ю 2 16 км ясно +12.2 +7.8 74 +11 +11 1020.0 814.7
Ю 2 16 км ясно +11.1 +7.2 77 +10 +10 1019.5 814.4
Ю 2 16 км ясно +10.6 +6.7 77 +9 +9 1019.7 814.4 +10.6 +16.7
нст 2 16 км 2/0 3600 m
[Ac]
+10.0 +6.7 80 +9 +9 1020.0 814.7
Ю 2 16 км ясно +10.6 +6.7 77 +9 +9 1020.7 814.7
Ю 2 16 км 2/0 3600 m
[Ac]
+17.2 +8.3 56 +18 +18 1020.8 815.2
штиль 0 16 км ясно +22.8 +7.8 38 +24 +29 комфорт 1020.2 815.2
СВ 2 16 км ясно +25.0 +8.9 36 +26 +33 жарко 1020.0 815.0
нст 3 16 км ясно +26.1 +11.7 41 +27 +38 жарко 1019.8 815.0 +10.0 +26.7
С 4 16 км ясно +27.2 +8.3 30 +27 +38 жарко 1019.3 814.4
нст 2 16 км 8/0 3000 m
[Ac]
+27.2 +7.8 29 +27 +35 жарко 1019.6 814.4
нст 2 16 км 5/2 1950 m
[Ac]
+28.3 +7.2 26 +28 +39 жарко 1019.0 814.2
нст 2 16 км гроза 5/2 1470 m
[Ac Cb]
+26.7 +8.9 33 +27 +38 жарко 813.9
ЮЗ 4 16 км гроза 2/2 1650 m
[Ac Cb]
+25.6 +9.4 36 +26 +36 жарко 1019.9 814.2
Ю 5
{10}
16 км 10/0 2100 m
[Ac]
+23.9 +8.3 37 +24 +27 комфорт 814.4
Ю 6 16 км 10/0 2100 m
[Ac]
+22.2 +10.0 46 +24 +26 комфорт 1021.7 815.0
нст 2
{9}
16 км гроза со слабым дождем 10/0 2700 m
[Ac]
+20.6 +11.7 57 +23 +27 комфорт 814.4
Ю 6 16 км слабый дождь 10/0 2700 m
[Ac As]
+20.0 +12.8 63 +22 +23 комфорт 814.7
нст 2
{7}
16 км слабый дождь 10/0 2850 m
[Ac As]
+20.0 +12.2 61 +22 +26 комфорт 1021.9 814.7 +20.0 +28.9
Ю 4 16 км ясно +22.8 +13.9 57 +26 +31 жарко 1020.6 814.2
Ю 6
{9}
16 км 2/0 3600 m
[Ac]
+24.4 +11.1 43 +26 +27 жарко 1019.7 813.9
ЮЗ 4
{8}
16 км 5/0 3300 m
[Ac]
+23.9 +9.4 40 +25 +25 комфорт 1019.0 813.9 0.3
штиль 0 16 км 5/0 3600 m
[Ac]
+21.7 +8.9 44 +23 +23 комфорт 1018.6 814.2
ЮЗ 2 16 км ясно +20.0 +8.9 49 +22 +22 комфорт 1018.7 814.4
Ю 3 16 км ясно +21.7 +7.8 41 +23 +23 комфорт 1017.8 814.2 +18.9 +25.0 0.3
нст 2 16 км ясно +19.4 +7.8 47 +21 +21 комфорт 1017.2 813.3
штиль 0 16 км ясно +15.6 +7.8 60 +16 +16 1017.9 813.3
штиль 0 16 км ясно +14.4 +8.3 67 +14 +14 1017.9 813.3
Ю 2 16 км ясно +12.8 +8.3 74 +12 +12 1018.5 813.3
Ю 2 16 км ясно +12.2 +7.8 74 +11 +11 1019.0 813.1
штиль 0 16 км ясно +11.1 +7.8 80 +11 +11 1019.6 813.1 +11.1 +22.2 0.3
Ю 2 16 км ясно +10.0 +7.2 83 +8 +8 1019.3 813.1
штиль 0 16 км ясно +11.7 +8.3 80 +11 +11 1019.0 813.3
штиль 0 16 км ясно +15.6 +10.0 69 +15 +17 1018.8 813.6
Местоположение метеостанции Lake Tahoe Airport: широта 38.8984 долгота -119.9962 высота над уровнем моря 1907 м.
В архиве по умолчанию представлена погода в Юг Лейк Тахо за последние 1-2 суток. Обновление информации о фактической погоде в базе происходит ежечасно! Архивные данные за месяц целиком и за предыдущие месяцы Вы можете получить, выбрав интересующий диапазон дат из раскрывающегося списка и нажав кнопку "Ввод!".
Внимание! Архив погоды МЕТАР в базе сайта по станциям, не включенным в климатический монитор, хранится не более 60 дней. Нет смысла пытаться выбрать более раннюю дату.
*Определитесь, кто Вы:
Внимание! Время в таблицах - местное (без учета летнего времени). Для получения всемирного времени необходимо вычесть поправку, которая равна -8 ч.
Смотрите также архив погоды в соседних городах и на ближайших метеорологических станциях:
Партнеры нашего сайта:      
Пояснения к столбцам:
  • Ветер - указаны скорость ветра в м/с - средняя за 10 мин, порывы в срок и между сроками (в фигурных скобках) и направление, откуда дует ветер: С - северный,
  • СВ - северо-восточный, В - восточный, ЮВ - юго-восточный, Ю - южный, ЮЗ - юго-западный, З - западный, СЗ - северо-западный.
  • Видимость - горизонтальная дальность видимости в метрах или километрах. При видимости от 1 до 10 км при отсутствии осадков обычно наблюдается дымка, при ухудшении видимости до 1 км и менее - туман. В сухую погоду видимость может ухудшаться дымом, пылью или мглою.
  • Явления - указаны атмосферные явления, наблюдавшиеся в срок или в последний час перед сроком; фигурными скобками обозначены явления, наблюдавшиеся между сроками (за 1-3 часа до срока); квадратными скобками обозначены град или гололедные отложения с указанием их диаметра в мм.
  • Облачность - указаны через наклонную черту общая и нижняя облачность в баллах и высота нижней границы облаков в метрах; квадратными скобками обозначены формы облаков: Ci - перистые, Cs - перисто-слоистые, Cc - перисто-кучевые, Ac - высококучевые, As - высокослоистые, Sc - слоисто-кучевые, Ns - слоисто-дождевые, Cu - кучевые, Cb - кучево-дождевые. Подробнее классификацию облаков см. в Атласе облаков (PDF).
  • T - Температура воздуха - температура, измеренная на высоте 2 м над землей.
  • Td - Температура точки росы - температура, при понижении до которой содержащийся в воздухе водяной пар достигнет насыщения.
  • f - Относительная влажность воздуха - влажноcть воздуха, измеренная на высоте 2 м над землей.
  • Te - Эффективная температура - температура, которую ощущает одетый по сезону человек в тени. Характеристика душности погоды. При расчете учитывается влияние влажности воздуха и скорости ветра на теплоощущения человека.
  • Tes - Эффективная температура на солнце - температура, которую ощущает человек, с поправкой на солнечный нагрев. Характеристика знойности погоды. Зависит от высоты солнца над горизонтом, облачности и скорости ветра. Ночью, в пасмурную погоду, а также при ветре 12 м/с и более поправка равна нулю.
  • P - Атмосферное давление - приведенное к уровню моря атмосферное давление.
  • Po - Атмосферное давление - измеренное на уровне метеостанции атмосферное давление.
  • Tmin - Минимальная температура - минимум температуры воздуха на высоте 2 м над землей.
  • Tmax - Максимальная температура - максимум температуры воздуха на высоте 2 м над землей.
  • R - Количество осадков - Количество выпавших осадков за период времени, мм. При наведении курсора мыши на число - период времени, за который выпало указанное количество осадков.
  • R24 - Количество осадков - Количество выпавших осадков за 24 часа, мм.
  • S - Снежный покров - Высота снежного покрова, см. При наведении курсора мыши на число - состояние снежного покрова и степень покрытия местности в баллах.